Вернуться в каталог

STARLINK-11590

АктивенСвязьVLEO
NORAD 63112·PAYLOAD·🇺🇸 United States

Запущен Feb 27, 2025 с Cape Canaveral Space Force Station

Loading…

Ближайшие Пролёты (ближайшие 24 часа)

TLE

СвежийSource: CelesTrak SupGP

Эпоха: Sep 15, 2026, 03:14 UTC

1 63112C 25039J   26258.13520833  .00001898  00000+0  14746-4 0  2589
2 63112  43.0005 175.3657 0001437 263.2406 162.5354 15.70833310    17

Отслеживайте STARLINK-11590 в реальном времени с AllMySat

Download on the App Store